CZ-6A DEB, 61166

Orbit data source: Space-Track

CZ-6A DEB, 61166 is space debris in LEO originally from a launch on Tue, 06 Aug 2024 UTC launched from the Taiyaun Space Center, China (TSC). Debris objects in space refer to the collection of defunct objects orbiting the Earth. Examples of debris include non-operational satellites, rocket bodies, and fragments generated from explosions, collisions, or faulty payload assembly.

Loading next visibility...
Identifier
61166, 2024-140RL
Orbit
LEO
Country
Flag of CNCN / PRC
Related business
Manufacturer
SAST
Mission
Spacecraft
Bus & Motor
Unknown
Mass
Unknown
Launch date (UTC)
2024-08-06 (2 years ago)
Launch vehicle
Unknown
Launch site
Taiyaun Space Center, China (TSC)
Object type
Payload
Rocket body
Debris
Shape & HBR
Unknown shape, 0.1 m
Radar Cross Section
Medium (>0.1 m² and <1 m²)

Expand to show TLE details & history
Last TLE update: 18 hours ago

TLE from 18 hours ago
0 CZ-6A DEB
1 61166U 24140RL  26171.24373924  .00014976  00000-0  18426-2 0  9992
2 61166  88.9669 265.6066 0071681 201.5238 158.2970 14.81069952 97220
Epoch: 2026-06-20T05:50Z
TLE epoch observation values (Epoch: 2026-06-20T05:50:59.070Z)
Latitude
0.00003°
Longitude
-90.60068°
Altitude
675.795 km
Speed
7.494 km/s
True Right ascension
17h 42m 25s
True Declination
0° 00' 00"
Sunlit
Object was in full shadow at epoch
Visualization orbit readout
Latitude
Unknown
Longitude
Unknown
Altitude
Unknown
Speed
Unknown
Apparent Right ascension
Unknown
Apparent Declination
Unknown
Sunlit
N/A
Visualization observer readout
Local Sidereal Time
10:20:30
Azimuth
Unknown
Elevation
Unknown
Doppler factor
Unknown
Orbital elements
Apogee altitude
672.997 km
Perigee altitude
572.63 km
Semi-major axis
7,000.95 km
Eccentricity
0.00717
Inclination
88.9669°
RAAN
265.6066°
Arg. of periapsis
201.5238°
True anomaly
158.59824°
Mean anomaly
158.297°
Eccentric anomaly
158.44787°
Mean motion
3.70517 °/min
Orbital period
97.16 mins
BSTAR
0.0018426
Loading maneuver chart data...
Computing Atmospheric mass density...
Loading historical data...
Loading historical data...
Loading historical data...
Loading historical data...
Loading historical data...
Loading historical data...
Loading historical data...

Documentation

Showing up to 5 results
|